{"data":{"norad_id":67104,"intl_designator":"2025-299C","name":"STARLINK-36258","alt_names":[],"object_type":"PAYLOAD","status":"ACTIVE","operator":null,"country":"US","launch_date":"2025-12-15","launch_site_code":"AFETR","launch_vehicle":null,"mission":null,"orbit_class":"UNKNOWN","rcs_meters":null,"size_class":null,"mass_kg":null,"dimensions":null,"purposes":["comms"],"wikipedia_slug":null,"has_3d_model":false,"image_url":null,"decayed_at":null,"tle_current":{"epoch":"2026-05-25T04:34:38.254656Z","epoch_age_seconds":62542,"freshness":"FRESH","line1":"1 67104U 25299C   26145.19072054  .00026307  00000+0  96147-3 0  9998","line2":"2 67104  43.0040  97.1615 0003175 243.7321 116.3205 15.27598085 24811","mean_motion":15.27598085,"eccentricity":0.0003175,"inclination_deg":43.004,"raan_deg":97.1615,"arg_perigee_deg":243.7321,"mean_anomaly_deg":116.3205,"bstar":0.00096147,"rev_number":2481,"period_min":94.265632704037,"perigee_km":480.81653418578,"apogee_km":485.17335296995,"semimajor_km":6861.1319435779,"source":"CELESTRAK","updated_at":"2026-05-25T13:38:21.472757Z"}}}